AB1IG Weather Reports


Display with metric or nautical units.
time (UTC)temp
F
wind
direction
speed
MPH
gust
MPH
rain 1hr
in
rain 24hr
in
rain mn
in
humidity
%
barometer
mb
20260508180026 79 251 3.0 9.0 0.00 0.00 0.00 50 1006.3
20260508174532 78 129 3.0 11.0 0.00 0.00 0.00 51 1006.6
20260508173021 77 319 2.0 7.0 0.00 0.00 0.00 51 1006.8
20260508171516 76 262 3.0 13.0 0.00 0.00 0.00 51 1007.0
20260508170012 75 131 2.0 10.0 0.00 0.00 0.00 51 1007.6
20260508164511 74 160 3.0 10.0 0.00 0.00 0.00 51 1007.9
20260508163020 75 229 3.0 12.0 0.00 0.00 0.00 49 1008.1
20260508161507 74 221 4.0 10.0 0.00 0.00 0.00 50 1008.3
20260508160103 72 22 3.0 12.0 0.00 0.00 0.00 53 1008.5
20260508154600 71 226 4.0 11.0 0.00 0.00 0.00 53 1008.4
20260508153057 70 295 6.0 16.0 0.00 0.00 0.00 54 1008.9
20260508151552 69 278 4.0 13.0 0.00 0.00 0.00 55 1009.0
20260508150048 68 117 4.0 11.0 0.00 0.00 0.00 57 1009.1
20260508144544 67 218 4.0 13.0 0.00 0.00 0.00 60 1009.2
20260508143041 66 233 4.0 11.0 0.00 0.00 0.00 62 1009.3
20260508141538 65 204 4.0 10.0 0.00 0.00 0.00 63 1009.4
20260508140035 63 57 5.0 12.0 0.00 0.00 0.00 65 1009.6
20260508134535 62 225 3.0 9.0 0.00 0.00 0.00 67 1009.8
20260508131527 60 229 2.0 8.0 0.00 0.00 0.00 72 1010.0
20260508130027 59 125 4.0 10.0 0.00 0.00 0.00 74 1009.8
20260508124526 58 319 2.0 6.0 0.00 0.00 0.00 76 1009.9
20260508123032 58 149 2.0 8.0 0.00 0.00 0.00 76 1009.8
20260508121525 57 260 1.0 7.0 0.00 0.00 0.00 78 1009.8
20260508120024 56 214 1.0 10.0 0.00 0.00 0.00 79 1009.8
20260508114524 56 291 1.0 9.0 0.00 0.00 0.00 78 1009.9
20260508113025 56 260 1.0 8.0 0.00 0.00 0.00 79 1009.8
20260508111525 56 124 2.0 6.0 0.00 0.00 0.00 79 1009.7
20260508110029 56 248 3.0 7.0 0.00 0.00 0.00 78 1009.6
20260508104518 56 218 2.0 8.0 0.00 0.00 0.00 77 1009.6
20260508103016 57 260 2.0 8.0 0.00 0.00 0.00 77 1009.4
20260508101529 57 259 2.0 9.0 0.00 0.00 0.00 76 1009.3
20260508100014 57 248 2.0 5.0 0.00 0.00 0.00 75 1009.2
20260508094514 58 236 2.0 9.0 0.00 0.00 0.00 74 1009.2
20260508093032 58 191 2.0 8.0 0.00 0.00 0.00 74 1009.2
20260508091507 59 204 3.0 8.0 0.00 0.00 0.00 73 1009.3
20260508090016 59 262 3.0 10.0 0.00 0.00 0.00 72 1009.2
20260508084504 59 225 3.0 10.0 0.00 0.00 0.00 72 1009.3
20260508083002 59 204 2.0 7.0 0.00 0.00 0.00 71 1009.2
20260508081502 59 159 3.0 8.0 0.00 0.00 0.00 70 1009.5
20260508080100 60 229 4.0 9.0 0.00 0.00 0.00 70 1009.6
20260508074557 60 262 3.0 10.0 0.00 0.00 0.00 69 1009.9
20260508073057 59 311 2.0 7.0 0.00 0.00 0.00 69 1010.1
20260508071552 59 9 2.0 6.0 0.00 0.00 0.00 68 1010.3
20260508070052 59 263 1.0 5.0 0.00 0.00 0.00 67 1010.4
20260508064547 59 149 1.0 7.0 0.00 0.00 0.00 65 1010.6
20260508063051 60 214 2.0 8.0 0.00 0.00 0.00 63 1010.6
20260508061543 60 208 2.0 7.0 0.00 0.00 0.00 61 1010.8
20260508060043 60 158 2.0 9.0 0.00 0.00 0.00 59 1010.8
20260508054557 61 66 2.0 5.0 0.00 0.00 0.00 57 1010.8
20260508053037 62 205 3.0 7.0 0.00 0.00 0.00 55 1010.7
20260508051535 62 274 2.0 8.0 0.00 0.00 0.00 54 1010.7
20260508050035 62 217 2.0 7.0 0.00 0.00 0.00 53 1010.7
20260508044532 62 149 2.0 6.0 0.00 0.00 0.00 53 1010.9
20260508043031 63 311 1.0 7.0 0.00 0.00 0.00 52 1011.1
20260508041539 63 238 1.0 5.0 0.00 0.00 0.00 51 1011.2
20260508040030 64 271 2.0 5.0 0.00 0.00 0.00 50 1011.2
20260508034529 64 172 1.0 5.0 0.00 0.00 0.00 49 1011.2
20260508033036 65 118 1.0 4.0 0.00 0.00 0.00 48 1011.2
20260508031529 65 174 2.0 8.0 0.00 0.00 0.00 46 1011.2
20260508030038 66 138 1.0 6.0 0.00 0.00 0.00 45 1011.2
20260508024527 66 207 1.0 4.0 0.00 0.00 0.00 42 1011.1
20260508023037 66 166 1.0 6.0 0.00 0.00 0.00 41 1010.9
20260508021532 67 198 0.0 2.0 0.00 0.00 0.00 40 1010.8
20260508020026 67 256 0.0 2.0 0.00 0.00 0.00 39 1010.8
20260508014532 68 210 0.0 3.0 0.00 0.00 0.00 38 1010.7
20260508013025 70 153 1.0 4.0 0.00 0.00 0.00 37 1010.6
20260508011525 71 250 0.0 3.0 0.00 0.00 0.00 36 1010.5
20260508010037 73 332 1.0 5.0 0.00 0.00 0.00 33 1010.4
20260508004525 75 230 1.0 5.0 0.00 0.00 0.00 31 1010.3
20260508003023 76 204 0.0 5.0 0.00 0.00 0.00 31 1010.2
20260508001531 77 190 1.0 4.0 0.00 0.00 0.00 30 1010.2
20260508000022 77 174 1.0 5.0 0.00 0.00 0.00 29 1010.1
20260507234521 78 282 1.0 5.0 0.00 0.00 0.00 27 1010.2
20260507233018 77 262 1.0 4.0 0.00 0.00 0.00 28 1010.5
20260507231516 78 210 1.0 5.0 0.00 0.00 0.00 28 1010.6
20260507230013 77 162 2.0 5.0 0.00 0.00 0.00 28 1010.8
20260507224512 77 210 0.0 9.0 0.00 0.00 0.00 30 1010.9
20260507223011 77 193 1.0 5.0 0.00 0.00 0.00 29 1010.9
20260507221507 78 87 1.0 5.0 0.00 0.00 0.00 30 1011.0
20260507220005 77 326 2.0 8.0 0.00 0.00 0.00 30 1011.2
20260507214503 76 295 1.0 7.0 0.00 0.00 0.00 31 1011.3
20260507213102 76 197 2.0 8.0 0.00 0.00 0.00 31 1011.4
20260507211559 76 136 1.0 5.0 0.00 0.00 0.00 31 1011.7
20260507210119 76 252 0.0 7.0 0.00 0.00 0.00 33 1012.0
20260507204558 75 308 1.0 10.0 0.00 0.00 0.00 32 1012.3
20260507203056 74 249 3.0 9.0 0.00 0.00 0.00 32 1012.6
20260507201545 74 326 3.0 7.0 0.00 0.00 0.00 32 1012.9
20260507200100 74 9 3.0 10.0 0.00 0.00 0.00 34 1013.2
20260507194541 73 329 1.0 11.0 0.00 0.00 0.00 35 1013.5
20260507193103 73 251 2.0 7.0 0.00 0.00 0.00 36 1013.7
20260507191536 72 308 1.0 8.0 0.00 0.00 0.00 36 1014.0
20260507190038 72 308 2.0 7.0 0.00 0.00 0.00 37 1014.3
20260507184531 71 301 2.0 8.0 0.00 0.00 0.00 38 1014.6
20260507183037 71 342 3.0 6.0 0.00 0.00 0.00 40 1014.8
20260507181526 70 70 2.0 9.0 0.00 0.00 0.00 39 1015.1